| time (UTC) | temp F | wind direction | speed MPH | gust MPH | rain 1hr in | rain 24hr in | rain mn in | humidity % | barometer mb |
| 20260505223057 | 69 | 19 | 4.0 | 14.0 | 0.00 | 0.01 | 0.01 | 59 | 1005.8 |
| 20260505221558 | 69 | 20 | 4.0 | 20.0 | 0.00 | 0.01 | 0.01 | 59 | 1006.0 |
| 20260505220105 | 69 | 360 | 3.0 | 11.0 | 0.00 | 0.01 | 0.01 | 61 | 1005.8 |
| 20260505214605 | 69 | 331 | 4.0 | 9.0 | 0.00 | 0.01 | 0.01 | 60 | 1005.6 |
| 20260505213104 | 69 | 65 | 4.0 | 16.0 | 0.00 | 0.01 | 0.01 | 60 | 1005.6 |
| 20260505211603 | 69 | 318 | 3.0 | 10.0 | 0.00 | 0.01 | 0.01 | 59 | 1005.6 |
| 20260505210056 | 69 | 315 | 3.0 | 11.0 | 0.00 | 0.01 | 0.01 | 58 | 1005.6 |
| 20260505204603 | 69 | 5 | 1.0 | 9.0 | 0.00 | 0.01 | 0.01 | 59 | 1005.7 |
| 20260505203100 | 69 | 340 | 2.0 | 7.0 | 0.00 | 0.01 | 0.01 | 60 | 1006.0 |
| 20260505201602 | 68 | 15 | 2.0 | 10.0 | 0.00 | 0.01 | 0.01 | 59 | 1006.3 |
| 20260505194556 | 68 | 55 | 2.0 | 12.0 | 0.00 | 0.01 | 0.01 | 58 | 1006.7 |
| 20260505193100 | 69 | 346 | 3.0 | 11.0 | 0.00 | 0.01 | 0.01 | 56 | 1006.8 |
| 20260505191601 | 69 | 355 | 3.0 | 15.0 | 0.00 | 0.01 | 0.01 | 55 | 1006.7 |
| 20260505190058 | 71 | 7.0 | 14.0 | 0.00 | 0.01 | 0.01 | 56 | 1006.4 | |
| 20260505184602 | 71 | 34 | 7.0 | 14.0 | 0.00 | 0.01 | 0.01 | 55 | 1006.3 |
| 20260505183058 | 70 | 351 | 8.0 | 16.0 | 0.00 | 0.01 | 0.01 | 57 | 1006.1 |
| 20260505181600 | 69 | 5 | 2.0 | 11.0 | 0.00 | 0.01 | 0.01 | 56 | 1006.2 |
| 20260505180103 | 70 | 317 | 2.0 | 11.0 | 0.00 | 0.01 | 0.01 | 55 | 1006.2 |
| 20260505174611 | 71 | 110 | 3.0 | 17.0 | 0.00 | 0.01 | 0.01 | 55 | 1006.1 |
| 20260505173056 | 71 | 305 | 4.0 | 15.0 | 0.00 | 0.01 | 0.01 | 55 | 1006.0 |
| 20260505171556 | 71 | 16 | 4.0 | 15.0 | 0.00 | 0.01 | 0.01 | 56 | 1006.0 |
| 20260505170137 | 71 | 322 | 4.0 | 19.0 | 0.00 | 0.01 | 0.01 | 56 | 1005.8 |
| 20260505164558 | 71 | 350 | 3.0 | 16.0 | 0.00 | 0.01 | 0.01 | 57 | 1005.8 |
| 20260505163056 | 70 | 69 | 3.0 | 17.0 | 0.00 | 0.01 | 0.01 | 57 | 1006.2 |
| 20260505161602 | 68 | 325 | 6.0 | 17.0 | 0.00 | 0.01 | 0.01 | 60 | 1006.4 |
| 20260505153058 | 67 | 341 | 6.0 | 16.0 | 0.00 | 0.01 | 0.01 | 60 | 1006.5 |
| 20260505151558 | 68 | 19 | 3.0 | 12.0 | 0.00 | 0.01 | 0.01 | 59 | 1006.2 |
| 20260505130112 | 66 | 333 | 7.0 | 18.0 | 0.00 | 0.01 | 0.01 | 64 | 1006.4 |
| 20260505124617 | 65 | 325 | 3.0 | 15.0 | 0.00 | 0.01 | 0.01 | 65 | 1006.4 |
| 20260505123116 | 64 | 335 | 4.0 | 13.0 | 0.00 | 0.01 | 0.01 | 66 | 1006.3 |
| 20260505121555 | 63 | 49 | 5.0 | 13.0 | 0.00 | 0.01 | 0.01 | 67 | 1006.3 |
| 20260505120059 | 63 | 338 | 4.0 | 17.0 | 0.00 | 0.01 | 0.01 | 67 | 1006.2 |
| 20260505114613 | 63 | 5 | 5.0 | 12.0 | 0.00 | 0.01 | 0.01 | 68 | 1006.1 |
| 20260505113058 | 62 | 11 | 5.0 | 14.0 | 0.00 | 0.01 | 0.01 | 68 | 1006.1 |
| 20260505111607 | 62 | 328 | 3.0 | 14.0 | 0.00 | 0.01 | 0.01 | 69 | 1005.9 |
| 20260505101557 | 60 | 24 | 4.0 | 11.0 | 0.01 | 0.01 | 0.01 | 71 | 1005.3 |
| 20260505100057 | 60 | 12 | 4.0 | 10.0 | 0.01 | 0.01 | 0.01 | 72 | 1005.2 |
| 20260505094555 | 60 | 345 | 3.0 | 10.0 | 0.01 | 0.01 | 0.01 | 72 | 1005.0 |
| 20260505093058 | 61 | 0 | 3.0 | 11.0 | 0.01 | 0.01 | 0.01 | 71 | 1004.9 |
| 20260505091558 | 62 | 360 | 5.0 | 13.0 | 0.00 | 0.00 | 0.00 | 68 | 1004.8 |
| 20260505090101 | 62 | 59 | 5.0 | 11.0 | 0.00 | 0.00 | 0.00 | 68 | 1005.0 |
| 20260505084600 | 62 | 319 | 2.0 | 10.0 | 0.00 | 0.00 | 0.00 | 68 | 1004.8 |
| 20260505083108 | 62 | 329 | 3.0 | 12.0 | 0.00 | 0.00 | 0.00 | 67 | 1004.8 |
| 20260505081558 | 62 | 5 | 2.0 | 14.0 | 0.00 | 0.00 | 0.00 | 67 | 1004.9 |
| 20260505080057 | 62 | 340 | 7.0 | 15.0 | 0.00 | 0.00 | 0.00 | 67 | 1004.8 |
| 20260505074556 | 62 | 317 | 3.0 | 12.0 | 0.00 | 0.00 | 0.00 | 67 | 1004.6 |
| 20260505073056 | 62 | 340 | 4.0 | 11.0 | 0.00 | 0.00 | 0.00 | 67 | 1004.4 |
| 20260505071557 | 62 | 329 | 4.0 | 10.0 | 0.00 | 0.00 | 0.00 | 67 | 1004.2 |
| 20260505070058 | 63 | 38 | 5.0 | 13.0 | 0.00 | 0.00 | 0.00 | 67 | 1004.3 |
| 20260505064601 | 63 | 360 | 5.0 | 12.0 | 0.00 | 0.00 | 0.00 | 67 | 1004.3 |
| 20260505063056 | 63 | 30 | 3.0 | 10.0 | 0.00 | 0.00 | 0.00 | 67 | 1004.5 |
| 20260505061557 | 62 | 11 | 5.0 | 10.0 | 0.00 | 0.00 | 0.00 | 66 | 1004.7 |
| 20260505054602 | 62 | 340 | 2.0 | 13.0 | 0.00 | 0.00 | 0.00 | 67 | 1005.1 |
| 20260505053110 | 62 | 360 | 2.0 | 8.0 | 0.00 | 0.00 | 0.00 | 67 | 1005.1 |
| 20260505051555 | 62 | 347 | 3.0 | 10.0 | 0.00 | 0.00 | 0.00 | 66 | 1005.3 |
| 20260505041612 | 61 | 348 | 1.0 | 5.0 | 0.00 | 0.00 | 0.00 | 68 | 1005.4 |
| 20260505040059 | 61 | 355 | 3.0 | 8.0 | 0.00 | 0.00 | 0.00 | 67 | 1005.3 |
| 20260505034558 | 61 | 344 | 2.0 | 5.0 | 0.00 | 0.00 | 0.00 | 67 | 1005.4 |
| 20260505033056 | 62 | 335 | 3.0 | 8.0 | 0.00 | 0.00 | 0.00 | 66 | 1005.5 |
| 20260505031606 | 62 | 0 | 3.0 | 9.0 | 0.00 | 0.00 | 0.00 | 66 | 1005.6 |
| 20260505030058 | 63 | 344 | 2.0 | 9.0 | 0.00 | 0.00 | 0.00 | 64 | 1005.7 |
| 20260505024559 | 64 | 5 | 2.0 | 13.0 | 0.00 | 0.00 | 0.00 | 63 | 1005.8 |
| 20260505023103 | 64 | 325 | 3.0 | 14.0 | 0.00 | 0.00 | 0.00 | 63 | 1005.8 |
| 20260505021558 | 64 | 342 | 5.0 | 12.0 | 0.00 | 0.00 | 0.00 | 63 | 1005.8 |
| 20260505020057 | 64 | 327 | 3.0 | 9.0 | 0.00 | 0.00 | 0.00 | 64 | 1005.8 |
| 20260505014557 | 64 | 34 | 4.0 | 11.0 | 0.00 | 0.00 | 0.00 | 64 | 1005.5 |
| 20260505013101 | 64 | 46 | 2.0 | 11.0 | 0.00 | 0.00 | 0.00 | 64 | 1005.4 |
| 20260505011559 | 64 | 338 | 3.0 | 8.0 | 0.00 | 0.00 | 0.00 | 64 | 1005.1 |
| 20260505010056 | 65 | 329 | 2.0 | 10.0 | 0.00 | 0.00 | 0.00 | 63 | 1004.8 |
| 20260505004558 | 65 | 330 | 3.0 | 10.0 | 0.00 | 0.00 | 0.00 | 62 | 1004.6 |
| 20260505003057 | 66 | 19 | 3.0 | 9.0 | 0.00 | 0.00 | 0.00 | 60 | 1004.5 |
| 20260505001558 | 67 | 13 | 5.0 | 13.0 | 0.00 | 0.00 | 0.00 | 59 | 1004.4 |
| 20260505000106 | 67 | 5 | 6.0 | 15.0 | 0.00 | 0.00 | 0.00 | 58 | 1004.2 |
| 20260504234632 | 68 | 343 | 6.0 | 12.0 | 0.00 | 0.00 | 0.00 | 57 | 1004.5 |
| 20260504233054 | 68 | 319 | 4.0 | 15.0 | 0.00 | 0.00 | 0.00 | 56 | 1004.6 |
| 20260504231606 | 68 | 4.0 | 15.0 | 0.00 | 0.00 | 0.00 | 55 | 1004.7 | |
| 20260504230100 | 68 | 5 | 3.0 | 20.0 | 0.00 | 0.00 | 0.00 | 55 | 1004.8 |
| 20260504224600 | 69 | 333 | 5.0 | 14.0 | 0.00 | 0.00 | 0.00 | 53 | 1004.9 |